CW7283 Weather Reports


time (UTC)temp
F
wind
direction
speed
knots
gust
knots
rain 1hr
in
rain 24hr
in
rain mn
in
humidity
%
barometer
mb
20260901104834 51 279 0.0 0.0 0.00 0.00 0.00 55 1014.3
20260901103352 51 279 0.0 0.0 0.00 0.00 0.00 55 1014.2
20260901101842 52 320 0.0 0.0 0.00 0.00 0.00 54 1014.2
20260901100346 52 320 0.0 0.0 0.00 0.00 0.00 52 1014.2
20260901094834 52 327 0.0 0.0 0.00 0.00 0.00 52 1014.3
20260901093351 52 304 0.0 0.9 0.00 0.00 0.00 52 1014.7
20260901091849 52 300 0.0 0.0 0.00 0.00 0.00 52 1014.7
20260901090341 52 311 0.0 1.7 0.00 0.00 0.00 52 1014.8
20260901084831 52 308 0.0 0.0 0.00 0.00 0.00 53 1014.9
20260901083330 51 312 0.0 0.0 0.00 0.00 0.00 54 1015.2
20260901081843 51 295 0.0 0.0 0.00 0.00 0.00 56 1015.3
20260901080349 51 291 0.0 0.0 0.00 0.00 0.00 57 1015.3
20260901074844 51 289 0.0 0.0 0.00 0.00 0.00 59 1015.5
20260901073406 50 286 0.0 0.0 0.00 0.00 0.00 60 1015.9
20260901071845 50 286 0.0 0.0 0.00 0.00 0.00 62 1015.9
20260901070325 50 285 0.0 0.0 0.00 0.00 0.00 61 1016.2
20260901064904 50 285 0.0 0.0 0.00 0.00 0.00 62 1016.4
20260901063328 51 275 0.0 0.0 0.00 0.00 0.00 62 1016.4
20260901061837 52 200 0.0 0.0 0.00 0.00 0.00 62 1016.5
20260901060329 52 200 0.0 0.0 0.00 0.00 0.00 63 1016.5
20260901054859 53 195 0.0 0.0 0.00 0.00 0.00 59 1016.5
20260901053357 54 195 0.0 0.0 0.00 0.00 0.00 60 1016.5
20260901051852 54 195 0.0 0.0 0.00 0.00 0.00 58 1016.5
20260901050345 55 226 0.0 0.0 0.00 0.00 0.00 58 1016.6
20260901044846 56 226 0.0 0.0 0.00 0.00 0.00 57 1016.5
20260901043334 56 226 0.0 0.0 0.00 0.00 0.00 54 1016.5
20260901041832 57 226 0.0 0.0 0.00 0.00 0.00 53 1016.5
20260901040350 58 254 0.0 0.0 0.00 0.00 0.00 51 1016.5
20260901034842 59 171 0.0 0.0 0.00 0.00 0.00 51 1016.6
20260901033346 60 59 0.0 0.0 0.00 0.00 0.00 46 1016.4
20260901031845 62 60 0.0 0.0 0.00 0.00 0.00 44 1016.5
20260901030350 63 59 0.0 0.0 0.00 0.00 0.00 42 1016.3
20260901024904 64 51 0.0 0.0 0.00 0.00 0.00 42 1016.0
20260901023359 65 51 0.0 0.0 0.00 0.00 0.00 42 1015.9
20260901021833 67 49 0.0 0.0 0.00 0.00 0.00 40 1015.8
20260901020329 68 49 0.0 0.0 0.00 0.00 0.00 40 1015.8
20260901014839 70 49 0.0 0.0 0.00 0.00 0.00 35 1015.7
20260901013334 72 49 0.0 0.0 0.00 0.00 0.00 34 1015.4
20260901011829 73 49 0.0 0.0 0.00 0.00 0.00 33 1015.2
20260901010329 74 49 0.0 0.0 0.00 0.00 0.00 30 1015.3
20260901004842 75 49 0.0 0.0 0.00 0.00 0.00 29 1015.3
20260901003330 76 49 0.0 0.0 0.00 0.00 0.00 29 1015.3
20260901001832 77 48 0.0 0.0 0.00 0.00 0.00 28 1015.3
20260901000330 79 72 0.0 0.0 0.00 0.00 0.00 27 1015.3
20260831234827 78 97 0.0 0.0 0.00 0.00 0.00 28 1015.4
20260831233353 79 127 0.0 1.7 0.00 0.00 0.00 28 1015.6
20260831231837 79 330 0.0 0.0 0.00 0.00 0.00 30 1015.8
20260831230352 79 286 0.0 1.7 0.00 0.00 0.00 26 1015.6
20260831224826 79 98 0.0 1.7 0.00 0.00 0.00 27 1015.8
20260831223406 79 36 0.0 1.7 0.00 0.00 0.00 29 1015.9
20260831221837 78 336 0.0 1.7 0.00 0.00 0.00 27 1015.9
20260831220326 77 355 0.0 1.7 0.00 0.00 0.00 30 1016.0
20260831214832 78 288 0.0 1.7 0.00 0.00 0.00 26 1016.2
20260831213333 78 313 0.0 1.7 0.00 0.00 0.00 27 1016.4
20260831211835 77 242 0.0 1.7 0.00 0.00 0.00 27 1016.6
20260831210338 76 196 0.0 1.7 0.00 0.00 0.00 28 1016.8
20260831204856 76 198 0.0 1.7 0.00 0.00 0.00 28 1017.1
20260831203359 75 106 0.0 1.7 0.00 0.00 0.00 30 1017.2
20260831201829 75 87 0.0 2.6 0.00 0.00 0.00 31 1017.4
20260831200341 74 89 0.0 1.7 0.00 0.00 0.00 31 1017.5
20260831194843 74 217 0.9 2.6 0.00 0.00 0.00 30 1017.7
20260831193329 73 144 0.0 3.5 0.00 0.00 0.00 31 1017.7
20260831191853 72 186 0.0 1.7 0.00 0.00 0.00 33 1017.8
20260831190356 72 110 0.0 0.9 0.00 0.00 0.00 34 1017.9
20260831184846 70 298 0.0 1.7 0.00 0.00 0.00 34 1017.8
20260831183328 70 53 0.0 2.6 0.00 0.00 0.00 36 1018.2
20260831181826 70 144 0.0 1.7 0.00 0.00 0.00 35 1018.3
20260831180329 69 311 0.0 1.7 0.00 0.00 0.00 36 1018.4
20260831174837 69 118 0.0 2.6 0.00 0.00 0.00 38 1018.4
20260831173327 68 193 0.9 2.6 0.00 0.00 0.00 38 1018.5
20260831171847 67 5 0.0 1.7 0.00 0.00 0.00 40 1018.5
20260831170334 67 226 0.9 2.6 0.00 0.00 0.00 38 1018.6
20260831164831 67 108 0.0 1.7 0.00 0.00 0.00 39 1018.6
20260831163341 67 65 0.0 1.7 0.00 0.00 0.00 41 1018.5
20260831161844 66 105 0.0 1.7 0.00 0.00 0.00 40 1018.3
20260831160332 64 355 0.0 1.7 0.00 0.00 0.00 45 1018.4
20260831154838 62 344 0.0 1.7 0.00 0.00 0.00 44 1018.3
20260831153335 60 100 0.0 1.7 0.00 0.00 0.00 58 1018.3
20260831151845 56 100 0.0 1.7 0.00 0.00 0.00 60 1018.3
20260831150339 54 129 0.0 0.0 0.00 0.00 0.00 68 1018.3
20260831144830 53 143 0.0 0.0 0.00 0.00 0.00 66 1018.2
20260831143342 52 132 0.0 0.9 0.00 0.00 0.00 68 1018.2
20260831141828 50 126 0.0 0.0 0.00 0.00 0.00 68 1017.9
20260831140332 48 94 0.0 0.0 0.00 0.00 0.00 72 1017.7
20260831134839 46 329 0.0 0.0 0.00 0.00 0.00 77 1017.6
20260831133356 45 160 0.0 0.0 0.00 0.00 0.00 83 1017.4
20260831131832 44 160 0.0 0.0 0.00 0.00 0.00 84 1017.2
20260831130329 44 160 0.0 0.0 0.00 0.00 0.00 83 1017.1
20260831124837 44 160 0.0 0.0 0.00 0.00 0.00 84 1016.8
20260831123335 44 160 0.0 0.0 0.00 0.00 0.00 83 1016.5
20260831121833 44 136 0.0 1.7 0.00 0.00 0.00 85 1016.5
20260831120343 44 134 0.0 0.0 0.00 0.00 0.00 86 1016.4
20260831114829 44 134 0.0 1.7 0.00 0.00 0.00 87 1016.5
20260831113353 44 46 0.0 0.0 0.00 0.00 0.00 88 1016.4
20260831111837 43 318 0.0 0.0 0.00 0.00 0.00 93 1016.2
20260831110332 42 318 0.0 0.0 0.00 0.00 0.00 92 1016.2